MST,Max TemperatureF,Mean TemperatureF,Min TemperatureF,Max Dew PointF,MeanDew PointF,Min DewpointF,Max Humidity, Mean Humidity, Min Humidity, Max Sea Level PressureIn, Mean Sea Level PressureIn, Min Sea Level PressureIn, Max VisibilityMiles, Mean VisibilityMiles, Min VisibilityMiles, Max Wind SpeedMPH, Mean Wind SpeedMPH, Max Gust SpeedMPH,PrecipitationIn, CloudCover, Events, WindDirDegrees
2013-1-1,27,17,7,18,10,4,93,81,62,30.18,30.11,30.06,10,9,0,12,5,,0.00,1,Fog-Snow,258
2013-1-2,32,25,18,26,21,12,89,76,62,30.29,30.14,30.04,10,9,3,25,14,31,0.03,6,Snow,319
2013-1-3,25,15,5,18,12,2,85,76,60,30.33,30.26,30.20,10,10,10,12,7,,0.00,3,,279
2013-1-4,32,20,7,23,11,2,88,74,56,30.19,30.10,30.01,10,10,10,12,7,,0.00,0,,258
2013-1-5,39,24,9,26,17,6,87,70,56,30.27,30.14,29.98,10,10,10,29,9,34,0.00,0,,292
2013-1-6,34,20,5,23,13,1,92,77,57,30.27,30.12,29.90,10,10,7,13,6,,0.00,0,,243
2013-1-7,42,27,12,27,20,10,91,75,48,30.00,29.92,29.81,10,10,10,17,3,14,0.00,0,,258
2013-1-8,50,31,12,30,22,9,91,72,44,30.22,29.94,29.77,10,10,10,20,6,26,0.00,0,,299
2013-1-9,50,36,21,32,26,18,89,72,49,30.35,30.21,30.14,10,10,10,14,5,20,0.00,0,,222
2013-1-10,40,32,24,36,31,20,97,87,72,30.12,29.76,29.47,10,6,0,12,3,12,0.00,6,Fog,148
2013-1-11,37,24,10,36,25,4,100,91,75,29.86,29.51,29.33,10,4,0,28,9,38,0.00,7,Fog-Snow,329
2013-1-12,16,6,-3,7,2,-8,84,72,63,30.11,30.01,29.86,10,10,10,26,15,32,0.00,0,,314
2013-1-13,17,6,-6,8,-1,-11,84,76,60,30.21,30.14,30.08,10,10,10,9,4,,0.00,1,,283
2013-1-14,21,9,-3,14,3,-9,89,79,67,30.29,30.21,30.16,10,10,7,9,6,,0.00,4,Snow,249
2013-1-15,32,14,-5,25,8,-10,83,75,60,30.17,30.08,29.99,10,10,10,23,6,26,0.00,3,Snow,264
2013-1-16,48,40,31,28,24,21,74,59,45,30.32,30.13,29.99,10,10,10,30,20,39,0.00,2,,310
2013-1-17,50,36,22,24,21,17,84,60,31,30.45,30.34,30.16,10,10,10,13,8,,0.00,0,,249
2013-1-18,58,40,22,26,19,12,87,55,17,30.15,30.03,29.96,10,10,10,20,7,28,0.00,0,,270
2013-1-19,55,39,23,24,18,14,88,48,20,30.24,30.14,29.96,10,10,10,23,9,29,0.00,0,,313
2013-1-20,39,24,9,27,18,7,90,77,53,30.33,30.25,30.15,10,10,10,31,6,38,0.00,1,,318
2013-1-21,34,20,7,23,14,4,93,77,53,30.29,30.17,30.08,10,10,7,10,2,,0.00,1,,124
2013-1-22,57,36,16,24,16,9,95,59,15,30.11,30.07,30.03,10,8,0,17,6,25,0.00,2,Fog,267
2013-1-23,42,30,18,20,16,13,80,64,35,30.29,30.17,30.08,10,10,10,15,6,,0.00,0,,90
2013-1-24,41,28,14,25,18,10,88,73,49,30.27,30.09,29.95,10,10,10,18,8,22,0.00,3,,184
2013-1-25,57,36,16,29,24,13,88,59,33,30.19,30.12,30.07,10,10,10,16,8,,0.00,0,,248
2013-1-26,61,41,21,32,26,19,89,60,28,30.07,29.93,29.78,10,10,10,10,2,,0.00,1,Rain,227
2013-1-27,54,44,35,45,38,33,97,86,60,29.77,29.72,29.68,10,7,1,13,2,,0.10,5,Rain,283
2013-1-28,41,34,26,40,32,26,97,94,88,29.76,29.68,29.58,10,4,0,22,5,25,0.01,6,Fog-Snow,32
2013-1-29,31,28,24,28,24,18,92,84,74,29.89,29.75,29.65,10,10,10,29,8,39,0.01,5,,318
2013-1-30,32,21,10,24,15,5,89,73,55,29.93,29.85,29.78,10,10,7,31,15,40,0.00,3,Snow,288
2013-1-31,32,24,16,25,15,8,84,72,64,30.22,30.10,29.86,10,10,3,18,10,26,0.00,7,Snow,348